| time (UTC) | temp F | wind direction | speed MPH | gust MPH | rain 1hr in | rain 24hr in | rain mn in | humidity % | barometer mb |
| 20260905204804 | 49 | 344 | 1.0 | 3.0 | 0.04 | 0.04 | 0.04 | 91 | 1029.4 |
| 20260905204304 | 49 | 13 | 1.0 | 5.0 | 0.04 | 0.04 | 0.04 | 91 | 1029.3 |
| 20260905203305 | 49 | 48 | 1.0 | 6.0 | 0.04 | 0.04 | 0.04 | 90 | 1029.3 |
| 20260905202805 | 49 | 10 | 3.0 | 6.0 | 0.04 | 0.04 | 0.04 | 90 | 1029.2 |
| 20260905202306 | 49 | 351 | 3.0 | 8.0 | 0.03 | 0.03 | 0.03 | 90 | 1029.4 |
| 20260905201805 | 49 | 0 | 2.0 | 5.0 | 0.03 | 0.03 | 0.03 | 91 | 1029.7 |
| 20260905201305 | 49 | 350 | 3.0 | 6.0 | 0.02 | 0.02 | 0.02 | 90 | 1029.5 |
| 20260905200805 | 49 | 33 | 1.0 | 5.0 | 0.02 | 0.02 | 0.02 | 90 | 1029.7 |
| 20260905200305 | 49 | 19 | 1.0 | 3.0 | 0.02 | 0.02 | 0.02 | 90 | 1029.8 |
| 20260905195806 | 49 | 0 | 1.0 | 3.0 | 0.01 | 0.01 | 0.01 | 89 | 1029.9 |
| 20260905195306 | 49 | 351 | 1.0 | 3.0 | 0.00 | 0.00 | 0.00 | 89 | 1029.7 |
| 20260905194805 | 49 | 340 | 2.0 | 6.0 | 0.00 | 0.00 | 0.00 | 88 | 1029.7 |
| 20260905194305 | 49 | 350 | 1.0 | 5.0 | 0.00 | 0.00 | 0.00 | 88 | 1029.7 |
| 20260905193806 | 49 | 335 | 2.0 | 5.0 | 0.00 | 0.00 | 0.00 | 88 | 1029.7 |
| 20260905193305 | 49 | 351 | 2.0 | 7.0 | 0.00 | 0.00 | 0.00 | 87 | 1029.3 |
| 20260905192805 | 49 | 17 | 2.0 | 5.0 | 0.00 | 0.00 | 0.00 | 88 | 1029.4 |
| 20260905192306 | 49 | 349 | 3.0 | 7.0 | 0.00 | 0.00 | 0.00 | 88 | 1029.1 |
| 20260905191806 | 49 | 36 | 2.0 | 6.0 | 0.00 | 0.00 | 0.00 | 88 | 1028.9 |
| 20260905191305 | 49 | 12 | 2.0 | 7.0 | 0.00 | 0.00 | 0.00 | 88 | 1029.1 |
| 20260905190805 | 49 | 352 | 2.0 | 8.0 | 0.00 | 0.00 | 0.00 | 88 | 1029.0 |
| 20260905190305 | 49 | 16 | 1.0 | 5.0 | 0.00 | 0.00 | 0.00 | 88 | 1028.9 |
| 20260905185306 | 49 | 0 | 1.0 | 5.0 | 0.00 | 0.00 | 0.00 | 88 | 1029.1 |
| 20260905184305 | 49 | 9 | 1.0 | 7.0 | 0.00 | 0.00 | 0.00 | 88 | 1029.3 |
| 20260905183805 | 49 | 358 | 4.0 | 7.0 | 0.00 | 0.00 | 0.00 | 86 | 1029.1 |
| 20260905183305 | 49 | 10 | 1.0 | 5.0 | 0.00 | 0.00 | 0.00 | 86 | 1029.3 |
| 20260905182804 | 49 | 4 | 1.0 | 5.0 | 0.00 | 0.00 | 0.00 | 87 | 1029.2 |
| 20260905182306 | 49 | 38 | 1.0 | 5.0 | 0.00 | 0.00 | 0.00 | 87 | 1029.1 |
| 20260905181806 | 49 | 15 | 2.0 | 3.0 | 0.00 | 0.00 | 0.00 | 89 | 1029.3 |
| 20260905181304 | 49 | 14 | 1.0 | 3.0 | 0.00 | 0.00 | 0.00 | 88 | 1029.2 |
| 20260905180805 | 49 | 357 | 1.0 | 5.0 | 0.00 | 0.00 | 0.00 | 87 | 1029.5 |
| 20260905175805 | 49 | 32 | 2.0 | 6.0 | 0.00 | 0.00 | 0.00 | 87 | 1029.4 |
| 20260905174804 | 49 | 13 | 2.0 | 5.0 | 0.00 | 0.00 | 0.00 | 86 | 1029.7 |
| 20260905173805 | 48 | 29 | 2.0 | 6.0 | 0.00 | 0.00 | 0.00 | 84 | 1029.7 |
| 20260905173305 | 48 | 6 | 2.0 | 6.0 | 0.00 | 0.00 | 0.00 | 84 | 1029.8 |
| 20260905172805 | 48 | 351 | 3.0 | 7.0 | 0.00 | 0.00 | 0.00 | 84 | 1029.5 |
| 20260905171805 | 48 | 0 | 3.0 | 7.0 | 0.00 | 0.00 | 0.00 | 84 | 1029.4 |
| 20260905171305 | 48 | 358 | 2.0 | 12.0 | 0.00 | 0.00 | 0.00 | 84 | 1029.4 |
| 20260905170805 | 49 | 349 | 5.0 | 12.0 | 0.00 | 0.00 | 0.00 | 83 | 1029.2 |
| 20260905170306 | 49 | 357 | 3.0 | 8.0 | 0.00 | 0.00 | 0.00 | 83 | 1029.0 |
| 20260905164805 | 48 | 40 | 3.0 | 9.0 | 0.00 | 0.00 | 0.00 | 83 | 1029.1 |
| 20260905164306 | 48 | 52 | 2.0 | 8.0 | 0.00 | 0.00 | 0.00 | 83 | 1029.1 |
| 20260905163804 | 48 | 24 | 3.0 | 10.0 | 0.00 | 0.00 | 0.00 | 83 | 1029.0 |
| 20260905163304 | 48 | 36 | 2.0 | 9.0 | 0.00 | 0.00 | 0.00 | 84 | 1028.8 |
| 20260905162805 | 48 | 54 | 2.0 | 6.0 | 0.00 | 0.00 | 0.00 | 84 | 1028.8 |
| 20260905162306 | 48 | 50 | 1.0 | 8.0 | 0.00 | 0.00 | 0.00 | 84 | 1029.2 |
| 20260905161305 | 47 | 42 | 2.0 | 7.0 | 0.00 | 0.00 | 0.00 | 85 | 1028.9 |
| 20260905160805 | 47 | 343 | 3.0 | 8.0 | 0.00 | 0.00 | 0.00 | 85 | 1029.0 |
| 20260905160304 | 47 | 12 | 4.0 | 10.0 | 0.00 | 0.00 | 0.00 | 85 | 1029.0 |
| 20260905155805 | 47 | 356 | 2.0 | 6.0 | 0.00 | 0.00 | 0.00 | 85 | 1029.0 |
| 20260905155306 | 47 | 355 | 2.0 | 7.0 | 0.00 | 0.00 | 0.00 | 85 | 1028.7 |
| 20260905154806 | 47 | 27 | 2.0 | 8.0 | 0.00 | 0.00 | 0.00 | 85 | 1028.7 |
| 20260905154304 | 47 | 350 | 2.0 | 6.0 | 0.00 | 0.00 | 0.00 | 85 | 1028.7 |
| 20260905153805 | 47 | 14 | 3.0 | 7.0 | 0.00 | 0.00 | 0.00 | 85 | 1028.6 |
| 20260905153305 | 47 | 357 | 2.0 | 9.0 | 0.00 | 0.00 | 0.00 | 85 | 1028.5 |
| 20260905152806 | 47 | 32 | 3.0 | 7.0 | 0.00 | 0.00 | 0.00 | 85 | 1028.3 |
| 20260905152306 | 47 | 336 | 2.0 | 10.0 | 0.00 | 0.00 | 0.00 | 85 | 1028.5 |
| 20260905151805 | 47 | 32 | 3.0 | 10.0 | 0.00 | 0.00 | 0.00 | 85 | 1028.6 |
| 20260905150806 | 47 | 13 | 2.0 | 9.0 | 0.00 | 0.00 | 0.00 | 85 | 1028.2 |
| 20260905150304 | 47 | 20 | 1.0 | 8.0 | 0.00 | 0.00 | 0.00 | 85 | 1028.2 |
| 20260905145805 | 47 | 35 | 5.0 | 12.0 | 0.00 | 0.00 | 0.00 | 85 | 1028.3 |
| 20260905145306 | 47 | 3 | 3.0 | 9.0 | 0.00 | 0.00 | 0.00 | 85 | 1028.1 |
| 20260905144305 | 47 | 20 | 3.0 | 10.0 | 0.00 | 0.00 | 0.00 | 85 | 1028.0 |
| 20260905143805 | 47 | 14 | 3.0 | 10.0 | 0.00 | 0.00 | 0.00 | 85 | 1028.0 |
| 20260905142806 | 47 | 47 | 3.0 | 8.0 | 0.00 | 0.00 | 0.00 | 85 | 1028.2 |
| 20260905141805 | 47 | 26 | 4.0 | 7.0 | 0.00 | 0.00 | 0.00 | 85 | 1028.1 |
| 20260905141305 | 47 | 337 | 3.0 | 9.0 | 0.00 | 0.00 | 0.00 | 86 | 1027.9 |
| 20260905140805 | 47 | 358 | 2.0 | 9.0 | 0.00 | 0.00 | 0.00 | 86 | 1027.5 |
| 20260905140305 | 46 | 347 | 2.0 | 8.0 | 0.00 | 0.00 | 0.00 | 86 | 1027.3 |
| 20260905135805 | 46 | 14 | 2.0 | 8.0 | 0.00 | 0.00 | 0.00 | 86 | 1027.5 |
| 20260905135306 | 46 | 7 | 3.0 | 8.0 | 0.00 | 0.00 | 0.00 | 86 | 1026.9 |
| 20260905134806 | 46 | 21 | 2.0 | 8.0 | 0.00 | 0.00 | 0.00 | 86 | 1027.0 |
| 20260905134305 | 46 | 44 | 3.0 | 9.0 | 0.00 | 0.00 | 0.00 | 86 | 1027.0 |
| 20260905133304 | 47 | 7 | 2.0 | 9.0 | 0.00 | 0.00 | 0.00 | 86 | 1026.9 |
| 20260905132806 | 46 | 27 | 2.0 | 8.0 | 0.00 | 0.00 | 0.00 | 86 | 1026.9 |
| 20260905131805 | 46 | 34 | 3.0 | 10.0 | 0.00 | 0.00 | 0.00 | 85 | 1026.9 |
| 20260905131306 | 47 | 49 | 2.0 | 9.0 | 0.00 | 0.00 | 0.00 | 85 | 1027.0 |
| 20260905130805 | 47 | 31 | 3.0 | 8.0 | 0.00 | 0.00 | 0.00 | 85 | 1027.1 |
| 20260905130304 | 47 | 38 | 1.0 | 6.0 | 0.00 | 0.00 | 0.00 | 85 | 1026.9 |
| 20260905125805 | 47 | 345 | 2.0 | 7.0 | 0.00 | 0.00 | 0.00 | 85 | 1027.0 |
| 20260905125306 | 47 | 17 | 3.0 | 7.0 | 0.00 | 0.00 | 0.00 | 85 | 1026.7 |
| 20260905124804 | 47 | 335 | 3.0 | 7.0 | 0.00 | 0.00 | 0.00 | 85 | 1026.8 |
| 20260905124304 | 47 | 13 | 3.0 | 8.0 | 0.00 | 0.00 | 0.00 | 85 | 1026.5 |
| 20260905123805 | 47 | 40 | 3.0 | 10.0 | 0.00 | 0.00 | 0.00 | 85 | 1026.8 |
| 20260905123305 | 47 | 358 | 2.0 | 5.0 | 0.00 | 0.00 | 0.00 | 85 | 1026.6 |
| 20260905122805 | 47 | 353 | 1.0 | 8.0 | 0.00 | 0.00 | 0.00 | 85 | 1026.5 |
| 20260905122306 | 47 | 38 | 1.0 | 10.0 | 0.00 | 0.00 | 0.00 | 85 | 1026.1 |
| 20260905121804 | 47 | 18 | 1.0 | 9.0 | 0.00 | 0.00 | 0.00 | 85 | 1026.1 |
| 20260905121306 | 47 | 11 | 1.0 | 6.0 | 0.00 | 0.00 | 0.00 | 85 | 1026.3 |
| 20260905120804 | 47 | 17 | 2.0 | 7.0 | 0.00 | 0.00 | 0.00 | 85 | 1026.3 |
| 20260905120305 | 47 | 344 | 2.0 | 7.0 | 0.00 | 0.00 | 0.00 | 85 | 1026.4 |
| 20260905115804 | 47 | 48 | 3.0 | 7.0 | 0.00 | 0.00 | 0.00 | 85 | 1026.6 |
| 20260905115306 | 47 | 9 | 3.0 | 7.0 | 0.00 | 0.00 | 0.00 | 85 | 1026.5 |
| 20260905114805 | 47 | 12 | 2.0 | 7.0 | 0.00 | 0.00 | 0.00 | 85 | 1026.3 |
| 20260905114305 | 47 | 349 | 3.0 | 7.0 | 0.00 | 0.00 | 0.00 | 85 | 1026.3 |
| 20260905113805 | 47 | 21 | 3.0 | 10.0 | 0.00 | 0.00 | 0.00 | 85 | 1026.5 |
| 20260905113306 | 47 | 345 | 4.0 | 12.0 | 0.00 | 0.00 | 0.00 | 85 | 1026.4 |
| 20260905111804 | 47 | 12 | 3.0 | 9.0 | 0.00 | 0.00 | 0.00 | 84 | 1026.2 |
| 20260905111306 | 47 | 36 | 2.0 | 10.0 | 0.00 | 0.00 | 0.00 | 84 | 1026.1 |
| 20260905110804 | 47 | 347 | 3.0 | 7.0 | 0.00 | 0.00 | 0.00 | 84 | 1026.1 |
| 20260905110305 | 47 | 8 | 3.0 | 10.0 | 0.00 | 0.00 | 0.00 | 84 | 1026.1 |
| 20260905105805 | 47 | 19 | 5.0 | 10.0 | 0.00 | 0.00 | 0.00 | 83 | 1026.0 |
| 20260905105306 | 47 | 10 | 2.0 | 10.0 | 0.00 | 0.00 | 0.00 | 83 | 1025.8 |
| 20260905104805 | 47 | 34 | 2.0 | 9.0 | 0.00 | 0.00 | 0.00 | 83 | 1025.6 |
| 20260905104305 | 47 | 34 | 3.0 | 10.0 | 0.00 | 0.00 | 0.00 | 83 | 1025.5 |
| 20260905103805 | 47 | 41 | 2.0 | 7.0 | 0.00 | 0.00 | 0.00 | 83 | 1025.8 |
| 20260905103304 | 47 | 354 | 2.0 | 7.0 | 0.00 | 0.00 | 0.00 | 83 | 1025.9 |
| 20260905102805 | 47 | 325 | 3.0 | 7.0 | 0.00 | 0.00 | 0.00 | 83 | 1025.5 |
| 20260905102306 | 47 | 349 | 2.0 | 7.0 | 0.00 | 0.00 | 0.00 | 83 | 1025.8 |
| 20260905101805 | 47 | 45 | 2.0 | 9.0 | 0.00 | 0.00 | 0.00 | 83 | 1025.6 |
| 20260905101304 | 47 | 13 | 4.0 | 12.0 | 0.00 | 0.00 | 0.00 | 83 | 1025.7 |
| 20260905100805 | 47 | 136 | 3.0 | 9.0 | 0.00 | 0.00 | 0.00 | 83 | 1025.4 |
| 20260905100306 | 47 | 95 | 3.0 | 8.0 | 0.00 | 0.00 | 0.00 | 83 | 1025.3 |
| 20260905095804 | 47 | 50 | 2.0 | 10.0 | 0.00 | 0.00 | 0.00 | 83 | 1025.3 |
| 20260905095306 | 47 | 73 | 2.0 | 9.0 | 0.00 | 0.00 | 0.00 | 84 | 1025.5 |
| 20260905094805 | 47 | 341 | 3.0 | 9.0 | 0.00 | 0.00 | 0.00 | 85 | 1025.5 |
| 20260905094305 | 47 | 336 | 2.0 | 7.0 | 0.00 | 0.00 | 0.00 | 85 | 1025.9 |
| 20260905093805 | 48 | 351 | 2.0 | 7.0 | 0.00 | 0.00 | 0.00 | 85 | 1025.8 |
| 20260905093304 | 48 | 3 | 2.0 | 9.0 | 0.00 | 0.00 | 0.00 | 84 | 1025.9 |
| 20260905092306 | 48 | 22 | 2.0 | 7.0 | 0.00 | 0.00 | 0.00 | 84 | 1025.6 |
| 20260905091305 | 48 | 349 | 3.0 | 7.0 | 0.00 | 0.00 | 0.00 | 83 | 1025.7 |
| 20260905090806 | 48 | 30 | 2.0 | 9.0 | 0.00 | 0.00 | 0.00 | 82 | 1025.5 |
| 20260905090304 | 48 | 51 | 3.0 | 12.0 | 0.00 | 0.00 | 0.00 | 82 | 1025.7 |
| 20260905085805 | 48 | 22 | 4.0 | 9.0 | 0.00 | 0.00 | 0.00 | 82 | 1025.6 |
| 20260905085306 | 48 | 68 | 3.0 | 10.0 | 0.00 | 0.00 | 0.00 | 83 | 1025.0 |
| 20260905084806 | 48 | 11 | 4.0 | 10.0 | 0.00 | 0.00 | 0.00 | 84 | 1025.1 |
| 20260905083804 | 48 | 80 | 1.0 | 8.0 | 0.00 | 0.00 | 0.00 | 84 | 1025.4 |
| 20260905083305 | 48 | 10 | 2.0 | 8.0 | 0.00 | 0.00 | 0.00 | 84 | 1025.3 |
| 20260905082806 | 48 | 349 | 4.0 | 8.0 | 0.00 | 0.00 | 0.00 | 84 | 1025.4 |
| 20260905082307 | 48 | 40 | 3.0 | 8.0 | 0.00 | 0.00 | 0.00 | 84 | 1025.5 |
| 20260905081305 | 47 | 341 | 3.0 | 8.0 | 0.00 | 0.00 | 0.00 | 85 | 1025.2 |
| 20260905080806 | 47 | 13 | 2.0 | 9.0 | 0.00 | 0.00 | 0.00 | 85 | 1024.9 |
| 20260905080304 | 47 | 336 | 2.0 | 10.0 | 0.00 | 0.00 | 0.00 | 85 | 1025.1 |
| 20260905075306 | 48 | 33 | 4.0 | 9.0 | 0.00 | 0.00 | 0.00 | 84 | 1025.0 |
| 20260905074805 | 48 | 2 | 3.0 | 9.0 | 0.00 | 0.00 | 0.00 | 84 | 1025.1 |
| 20260905074305 | 48 | 353 | 2.0 | 9.0 | 0.00 | 0.00 | 0.00 | 84 | 1025.1 |
| 20260905073804 | 48 | 346 | 3.0 | 9.0 | 0.00 | 0.00 | 0.00 | 83 | 1025.0 |
| 20260905073305 | 49 | 47 | 2.0 | 9.0 | 0.00 | 0.00 | 0.00 | 83 | 1024.7 |
| 20260905072806 | 49 | 31 | 2.0 | 12.0 | 0.00 | 0.00 | 0.00 | 83 | 1024.6 |
| 20260905072306 | 49 | 64 | 4.0 | 12.0 | 0.00 | 0.00 | 0.00 | 83 | 1025.0 |
| 20260905071804 | 49 | 21 | 2.0 | 9.0 | 0.00 | 0.00 | 0.00 | 84 | 1025.1 |
| 20260905071305 | 49 | 317 | 5.0 | 12.0 | 0.00 | 0.00 | 0.00 | 84 | 1025.2 |
| 20260905070806 | 49 | 29 | 1.0 | 8.0 | 0.00 | 0.00 | 0.00 | 85 | 1024.8 |
| 20260905070305 | 49 | 36 | 3.0 | 8.0 | 0.00 | 0.00 | 0.00 | 84 | 1024.8 |
| 20260905065805 | 49 | 342 | 2.0 | 9.0 | 0.00 | 0.00 | 0.00 | 84 | 1024.9 |
| 20260905065306 | 49 | 313 | 3.0 | 10.0 | 0.00 | 0.00 | 0.00 | 84 | 1025.0 |
| 20260905063304 | 50 | 17 | 3.0 | 9.0 | 0.00 | 0.00 | 0.00 | 86 | 1024.5 |
| 20260905062805 | 50 | 26 | 3.0 | 9.0 | 0.00 | 0.00 | 0.00 | 86 | 1024.9 |
| 20260905061805 | 51 | 53 | 3.0 | 8.0 | 0.00 | 0.00 | 0.00 | 85 | 1024.9 |
| 20260905061305 | 51 | 342 | 2.0 | 9.0 | 0.00 | 0.00 | 0.00 | 85 | 1025.0 |
| 20260905060305 | 51 | 49 | 3.0 | 13.0 | 0.00 | 0.00 | 0.00 | 84 | 1024.5 |
| 20260905055805 | 50 | 21 | 3.0 | 13.0 | 0.00 | 0.00 | 0.00 | 85 | 1024.2 |
| 20260905055306 | 50 | 125 | 3.0 | 9.0 | 0.00 | 0.00 | 0.00 | 85 | 1024.2 |
| 20260905054305 | 50 | 29 | 2.0 | 6.0 | 0.00 | 0.00 | 0.00 | 86 | 1024.2 |
| 20260905053305 | 50 | 38 | 1.0 | 7.0 | 0.00 | 0.00 | 0.00 | 86 | 1024.4 |
| 20260905052306 | 49 | 24 | 2.0 | 8.0 | 0.00 | 0.00 | 0.00 | 87 | 1024.6 |
| 20260905051805 | 49 | 351 | 2.0 | 6.0 | 0.00 | 0.00 | 0.00 | 87 | 1024.6 |
| 20260905050805 | 49 | 49 | 0.0 | 2.0 | 0.00 | 0.00 | 0.00 | 87 | 1024.7 |
| 20260905050305 | 49 | 27 | 1.0 | 3.0 | 0.00 | 0.00 | 0.00 | 87 | 1024.6 |
| 20260905045804 | 49 | 32 | 2.0 | 6.0 | 0.00 | 0.00 | 0.00 | 87 | 1024.6 |
| 20260905045306 | 49 | 31 | 1.0 | 5.0 | 0.00 | 0.00 | 0.00 | 86 | 1024.4 |
| 20260905044304 | 50 | 343 | 2.0 | 8.0 | 0.00 | 0.00 | 0.00 | 86 | 1024.3 |
| 20260905043805 | 50 | 27 | 1.0 | 8.0 | 0.00 | 0.00 | 0.00 | 85 | 1024.4 |
| 20260905043306 | 50 | 5 | 2.0 | 7.0 | 0.00 | 0.00 | 0.00 | 85 | 1024.4 |
| 20260905042804 | 50 | 359 | 3.0 | 7.0 | 0.00 | 0.00 | 0.00 | 84 | 1024.3 |
| 20260905042307 | 51 | 353 | 2.0 | 7.0 | 0.00 | 0.00 | 0.00 | 84 | 1024.0 |
| 20260905041805 | 51 | 42 | 3.0 | 7.0 | 0.00 | 0.00 | 0.00 | 83 | 1023.9 |
| 20260905040805 | 51 | 332 | 2.0 | 8.0 | 0.00 | 0.00 | 0.00 | 83 | 1023.6 |
| 20260905040305 | 51 | 0 | 2.0 | 6.0 | 0.00 | 0.00 | 0.00 | 83 | 1023.8 |
| 20260905035306 | 52 | 40 | 1.0 | 6.0 | 0.00 | 0.00 | 0.00 | 82 | 1023.7 |
| 20260905034805 | 52 | 357 | 2.0 | 6.0 | 0.00 | 0.00 | 0.00 | 81 | 1023.7 |
| 20260905034304 | 52 | 355 | 2.0 | 3.0 | 0.00 | 0.00 | 0.00 | 81 | 1023.5 |
| 20260905033805 | 52 | 39 | 1.0 | 5.0 | 0.00 | 0.00 | 0.00 | 81 | 1023.5 |
| 20260905032805 | 52 | 35 | 1.0 | 5.0 | 0.00 | 0.00 | 0.00 | 80 | 1023.5 |
| 20260905032306 | 52 | 59 | 2.0 | 9.0 | 0.00 | 0.00 | 0.00 | 79 | 1023.6 |
| 20260905031304 | 53 | 17 | 3.0 | 7.0 | 0.00 | 0.00 | 0.00 | 79 | 1023.5 |
| 20260905030805 | 53 | 350 | 2.0 | 6.0 | 0.00 | 0.00 | 0.00 | 77 | 1023.4 |
| 20260905030305 | 54 | 336 | 2.0 | 6.0 | 0.00 | 0.00 | 0.00 | 76 | 1023.3 |
| 20260905025805 | 54 | 354 | 1.0 | 3.0 | 0.00 | 0.00 | 0.00 | 75 | 1023.2 |
| 20260905025306 | 54 | 20 | 2.0 | 6.0 | 0.00 | 0.00 | 0.00 | 75 | 1023.0 |
| 20260905024804 | 55 | 34 | 1.0 | 5.0 | 0.00 | 0.00 | 0.00 | 74 | 1022.6 |
| 20260905024304 | 55 | 23 | 2.0 | 5.0 | 0.00 | 0.00 | 0.00 | 74 | 1022.5 |
| 20260905023805 | 54 | 31 | 1.0 | 5.0 | 0.00 | 0.00 | 0.00 | 74 | 1022.3 |
| 20260905022806 | 55 | 358 | 0.0 | 2.0 | 0.00 | 0.00 | 0.00 | 74 | 1022.8 |
| 20260905022306 | 55 | 355 | 0.0 | 2.0 | 0.00 | 0.00 | 0.00 | 73 | 1022.5 |
| 20260905021304 | 56 | 16 | 1.0 | 2.0 | 0.00 | 0.00 | 0.00 | 72 | 1022.4 |
| 20260905020804 | 56 | 28 | 0.0 | 3.0 | 0.00 | 0.00 | 0.00 | 71 | 1022.3 |
| 20260905020304 | 56 | 355 | 0.0 | 2.0 | 0.00 | 0.00 | 0.00 | 70 | 1022.5 |
| 20260905015806 | 57 | 352 | 1.0 | 5.0 | 0.00 | 0.00 | 0.00 | 69 | 1022.2 |
| 20260905014805 | 57 | 341 | 2.0 | 5.0 | 0.00 | 0.00 | 0.00 | 67 | 1022.3 |
| 20260905014306 | 58 | 344 | 1.0 | 3.0 | 0.00 | 0.00 | 0.00 | 66 | 1022.2 |
| 20260905013804 | 59 | 337 | 2.0 | 5.0 | 0.00 | 0.00 | 0.00 | 64 | 1022.2 |
| 20260905013304 | 59 | 338 | 2.0 | 5.0 | 0.00 | 0.00 | 0.00 | 63 | 1022.1 |
| 20260905012306 | 60 | 14 | 2.0 | 6.0 | 0.00 | 0.00 | 0.00 | 62 | 1021.9 |
| 20260905011804 | 60 | 344 | 1.0 | 6.0 | 0.00 | 0.00 | 0.00 | 62 | 1021.9 |
| 20260905011305 | 60 | 347 | 2.0 | 6.0 | 0.00 | 0.00 | 0.00 | 62 | 1022.0 |
| 20260905010305 | 60 | 9 | 2.0 | 5.0 | 0.00 | 0.00 | 0.00 | 61 | 1021.7 |
| 20260905005804 | 60 | 335 | 1.0 | 7.0 | 0.00 | 0.00 | 0.00 | 61 | 1021.9 |
| 20260905005306 | 60 | 352 | 2.0 | 7.0 | 0.00 | 0.00 | 0.00 | 62 | 1021.7 |
| 20260905004305 | 60 | 342 | 2.0 | 7.0 | 0.00 | 0.00 | 0.00 | 62 | 1021.6 |
| 20260905003305 | 60 | 23 | 1.0 | 5.0 | 0.00 | 0.00 | 0.00 | 62 | 1021.9 |
| 20260905002306 | 60 | 63 | 1.0 | 3.0 | 0.00 | 0.00 | 0.00 | 62 | 1021.8 |
| 20260905001805 | 59 | 341 | 1.0 | 3.0 | 0.00 | 0.00 | 0.00 | 63 | 1021.7 |
| 20260905001306 | 59 | 0 | 2.0 | 6.0 | 0.00 | 0.00 | 0.00 | 62 | 1021.4 |
| 20260905000305 | 59 | 357 | 0.0 | 5.0 | 0.00 | 0.00 | 0.00 | 63 | 1021.4 |
| 20260904235804 | 59 | 351 | 2.0 | 6.0 | 0.00 | 0.00 | 0.00 | 62 | 1021.3 |
| 20260904235306 | 59 | 18 | 2.0 | 6.0 | 0.00 | 0.00 | 0.00 | 62 | 1021.5 |
| 20260904234805 | 59 | 358 | 2.0 | 6.0 | 0.00 | 0.00 | 0.00 | 62 | 1021.2 |
| 20260904234305 | 59 | 1 | 2.0 | 6.0 | 0.00 | 0.00 | 0.00 | 62 | 1021.2 |
| 20260904233805 | 59 | 343 | 1.0 | 3.0 | 0.00 | 0.00 | 0.00 | 62 | 1021.0 |
| 20260904233305 | 59 | 335 | 0.0 | 5.0 | 0.00 | 0.00 | 0.00 | 63 | 1021.2 |
| 20260904232805 | 59 | 353 | 3.0 | 8.0 | 0.00 | 0.00 | 0.00 | 62 | 1020.9 |
| 20260904232306 | 59 | 349 | 0.0 | 5.0 | 0.00 | 0.00 | 0.00 | 63 | 1020.9 |
| 20260904231804 | 59 | 317 | 1.0 | 7.0 | 0.00 | 0.00 | 0.00 | 62 | 1021.0 |
| 20260904231305 | 60 | 352 | 2.0 | 6.0 | 0.00 | 0.00 | 0.00 | 62 | 1020.7 |
| 20260904230805 | 60 | 1 | 2.0 | 6.0 | 0.00 | 0.00 | 0.00 | 62 | 1020.9 |
| 20260904230304 | 60 | 345 | 1.0 | 6.0 | 0.00 | 0.00 | 0.00 | 61 | 1020.7 |
| 20260904225805 | 60 | 329 | 1.0 | 3.0 | 0.00 | 0.00 | 0.00 | 62 | 1020.6 |
| 20260904224805 | 60 | 10 | 1.0 | 7.0 | 0.00 | 0.00 | 0.00 | 61 | 1020.3 |
| 20260904224304 | 60 | 22 | 1.0 | 7.0 | 0.00 | 0.00 | 0.00 | 61 | 1020.1 |
| 20260904223805 | 60 | 356 | 2.0 | 8.0 | 0.00 | 0.00 | 0.00 | 61 | 1020.1 |
| 20260904222805 | 60 | 317 | 1.0 | 6.0 | 0.00 | 0.00 | 0.00 | 61 | 1019.9 |
| 20260904222306 | 60 | 337 | 2.0 | 7.0 | 0.00 | 0.00 | 0.00 | 60 | 1019.8 |
| 20260904221805 | 60 | 33 | 2.0 | 7.0 | 0.00 | 0.00 | 0.00 | 60 | 1019.7 |
| 20260904220805 | 60 | 17 | 1.0 | 6.0 | 0.00 | 0.00 | 0.00 | 61 | 1019.7 |
| 20260904220305 | 60 | 5 | 2.0 | 7.0 | 0.00 | 0.00 | 0.00 | 61 | 1019.6 |
| 20260904215804 | 60 | 1 | 1.0 | 3.0 | 0.00 | 0.00 | 0.00 | 60 | 1019.7 |
| 20260904215305 | 60 | 330 | 1.0 | 5.0 | 0.00 | 0.00 | 0.00 | 60 | 1019.9 |
| 20260904213805 | 60 | 341 | 2.0 | 5.0 | 0.00 | 0.00 | 0.00 | 58 | 1019.8 |
| 20260904213305 | 60 | 25 | 1.0 | 6.0 | 0.00 | 0.00 | 0.00 | 59 | 1019.9 |
| 20260904212806 | 60 | 350 | 3.0 | 7.0 | 0.00 | 0.00 | 0.00 | 59 | 1019.8 |
| 20260904212306 | 60 | 30 | 2.0 | 5.0 | 0.00 | 0.00 | 0.00 | 60 | 1019.6 |
| 20260904211304 | 60 | 341 | 2.0 | 7.0 | 0.00 | 0.00 | 0.00 | 60 | 1019.5 |
| 20260904210805 | 60 | 37 | 2.0 | 6.0 | 0.00 | 0.00 | 0.00 | 60 | 1019.6 |
| 20260904210304 | 60 | 9 | 2.0 | 8.0 | 0.00 | 0.00 | 0.00 | 60 | 1019.3 |
| 20260904205804 | 61 | 12 | 2.0 | 5.0 | 0.00 | 0.00 | 0.00 | 60 | 1019.4 |
| 20260904205306 | 61 | 352 | 3.0 | 8.0 | 0.00 | 0.00 | 0.00 | 57 | 1019.0 |